sat.trackr.live / text

‹ back to catalog

STARLINK-30205

NORAD 57408 · 2023-102E

PAYLOAD ACTIVE UNKNOWN

§ Identity

Operator
Country
US
Launch date
2023-07-20
Launch site
AFWTR
Launch vehicle
Mass (kg)
RCS (m²)

Purposes: comms

External: N2YO · Heavens-Above · Gunter

§ Orbital elements

Epoch: 2026-09-20T07:03:12.691296Z

Period
93.97 min
Inclination
43.0020°
Eccentricity
0.0004896
Mean motion
15.32383995 rev/d
Perigee alt
465.3 km
Apogee alt
472.1 km
Semi-major
6,846.8 km
B*
9.4046e-4
RAAN
228.5903°
Arg perigee
147.6237°
Mean anomaly
212.4918°
Rev number
17,601

§ Raw data

STARLINK-302051 57408U 23102E   26263.29389689  .00029883  00000+0  94046-3 0  99902 57408  43.0020 228.5903 0004896 147.6237 212.4918 15.32383995176011

JSON: /api/v1/satellites/57408 · /tle

For live sub-satellite position, see the globe view (requires WebGL).

§ Visibility from observer

Set your observer location to see the next 7 days of passes ≥ 10°. The values pass through the URL so the page stays shareable.

No JS? Fill the form by hand. The geolocation button needs JavaScript.